Content
SEND FEEDBACK

Daily
Averages
Monthly
Summary
United States of America

ST. LOUIS, MISSOURI


Home > North America > United States > Missouri
Elevation: 163 meters     Latitude: 38 45N     Longitude: 090 22W

WEATHER
 
SELECT A DAY
Number of Records: 196,649;   Date Range: 1/1/95 - 9/18/14
 
SHARE

PRINT THIS DATA

[ ← Previous Day ]
WEATHER ALMANAC - MARCH 20, 2013
[ Next Day → ]
[ °C ]   °F
Weather ElementAverageHighLow
Temperature30.6 °F36 °F (4:54 pm)23 °F (11:54 pm)
Dewpoint16.4 °F28 °F (3:54 am)10 °F (6:54 pm)
Humidity57.4 %85 % (3:54 am)36 % (4:54 pm)
Barometer30.23 in30.32 in (9:54 am)30.15 in (11:54 pm)
Wind Speed12 mph19.6 mph (9:54 am)
Wind Gust27.6 mph (2:54 pm)
Weather ElementAverage
Visibility10 mi
Wind DirectionWNW (289.2 °)

Weather ElementTotal
Precipitation---
Heating Degree Days35.5 (Base 65)
Averaged from 24 records on March 20, 2013
WEATHER CONDITIONS BREAKOUT
WIND DIRECTION BREAKOUT
WEATHER BY HOUR - MARCH 20, 2013
[ °C ]   °F
Local TimeTemperatureDewpointHumidityBarometerVisibilityWind DirectionWind SpeedGust SpeedPrecipitationEventsConditions
1:54 AM30.9 °F24.1 °F76 %30.20 in10.0 miWest (260°)8.1 mphClear
2:54 AM32.0 °F26.1 °F79 %30.19 in10.0 miWest (270°)4.6 mphClear
3:54 AM32.0 °F28.0 °F85 %30.20 in10.0 miWSW (250°)8.1 mphClear
4:54 AM33.1 °F28.0 °F82 %30.21 in10.0 miWNW (290°)6.9 mphClear
5:54 AM30.9 °F23.0 °F72 %30.22 in10.0 miWNW (300°)8.1 mphClear
6:54 AM30.0 °F19.0 °F64 %30.24 in10.0 miNW (320°)11.5 mphClear
7:54 AM30.0 °F19.9 °F66 %30.28 in10.0 miNW (310°)13.8 mph18.4 mphMostly Cloudy
8:54 AM28.9 °F17.1 °F61 %30.31 in10.0 miNW (320°)17.3 mph25.3 mphMostly Cloudy
9:04 AM28.4 °F17.6 °F64 %30.29 in10.0 miNW (310°)17.3 mph23.0 mphOvercast
9:54 AM28.9 °F15.1 °F56 %30.32 in10.0 miNW (320°)19.6 mphOvercast
10:54 AM28.9 °F14.0 °F54 %30.31 in10.0 miNW (320°)18.4 mph24.2 mphOvercast
11:54 AM32.0 °F16.0 °F52 %30.30 in10.0 miNNW (330°)18.4 mph23.0 mphMostly Cloudy
12:54 PM33.1 °F15.1 °F48 %30.27 in10.0 miNNW (330°)19.6 mph24.2 mphMostly Cloudy
1:54 PM34.0 °F16.0 °F48 %30.26 in10.0 miNNW (340°)19.6 mphMostly Cloudy
2:54 PM34.0 °F14.0 °F44 %30.23 in10.0 miWest (280°)16.1 mph27.6 mphMostly Cloudy
3:54 PM34.0 °F10.9 °F38 %30.22 in10.0 miNNW (330°)13.8 mph26.5 mphPartly Cloudy
4:54 PM36.0 °F10.9 °F36 %30.20 in10.0 miNW (320°)15.0 mph23.0 mphScattered Clouds
5:54 PM34.0 °F10.9 °F38 %30.19 in10.0 miNW (320°)16.1 mph25.3 mphPartly Cloudy
6:54 PM32.0 °F10.0 °F40 %30.19 in10.0 miWNW (290°)12.7 mphPartly Cloudy
7:54 PM30.9 °F10.0 °F42 %30.18 in10.0 miWNW (300°)9.2 mphClear
8:54 PM28.9 °F10.9 °F47 %30.17 in10.0 miWNW (290°)5.8 mphClear
9:54 PM25.0 °F12.0 °F58 %30.17 in10.0 miWest (270°)4.6 mphClear
10:54 PM24.1 °F12.9 °F62 %30.16 in10.0 miWest (270°)3.5 mphClear
11:54 PM23.0 °F12.9 °F65 %30.15 in10.0 miCalmClear
Hourly data recorded from KSUS, located miles away from St. Louis, Missouri







STORIES FROM OUR PARTNERS